This is the latest recevied weather packets stored in our database for station/object IQ5KG. If no packets are shown the sender has not sent any weather packets the latest 10 day(s).
| Time | Temp. | Humidity | Pressure | Rain* | Wind** | Luminosity | Snow |
|---|---|---|---|---|---|---|---|
| 1777866484 | 11.67° C | 69% | 1018.7 hPa | 0 mm | - | - | - |
| 1777865584 | 11.67° C | 70% | 1018.7 hPa | 0 mm | - | - | - |
| 1777864683 | 11.11° C | 68% | 1018.6 hPa | 0 mm | - | - | - |
| 1777863784 | 11.67° C | 66% | 1018.8 hPa | 0 mm | - | - | - |
| 1777862883 | 11.67° C | 65% | 1018.8 hPa | 0 mm | - | - | - |
| 1777861984 | 12.22° C | 64% | 1018.9 hPa | 0 mm | - | - | - |
| 1777861083 | 12.78° C | 62% | 1018.8 hPa | 0 mm | - | - | - |
| 1777860183 | 12.78° C | 61% | 1018.6 hPa | 0 mm | - | - | - |
| 1777859283 | 12.78° C | 61% | 1018.7 hPa | 0 mm | - | - | - |
| 1777858384 | 12.78° C | 61% | 1018.9 hPa | 0 mm | - | - | - |
| 1777857482 | 13.33° C | 60% | 1018.8 hPa | 0 mm | - | - | - |
| 1777856582 | 12.78° C | 62% | 1018.9 hPa | 0 mm | - | - | - |
| 1777855682 | 13.33° C | 65% | 1019 hPa | 0 mm | - | - | - |
| 1777854781 | 13.33° C | 67% | 1018.8 hPa | 0 mm | - | - | - |
| 1777853883 | 13.33° C | 66% | 1019 hPa | 0 mm | - | - | - |
| 1777852982 | 12.78° C | 62% | 1019.1 hPa | 0 mm | - | - | - |
| 1777852081 | 13.33° C | 59% | 1019.1 hPa | 0 mm | - | - | - |
| 1777851182 | 13.89° C | 56% | 1019.4 hPa | 0 mm | - | - | - |
| 1777850282 | 13.33° C | 58% | 1019.4 hPa | 0 mm | - | - | - |
| 1777849382 | 14.44° C | 60% | 1019.3 hPa | 0 mm | - | - | - |
| 1777848483 | 13.89° C | 63% | 1019.3 hPa | 0 mm | - | - | - |
| 1777847582 | 13.89° C | 63% | 1019.5 hPa | 0 mm | - | - | - |
| 1777846681 | 13.89° C | 60% | 1019.5 hPa | 0 mm | - | - | - |
| 1777845780 | 14.44° C | 55% | 1019.4 hPa | 0 mm | - | - | - |
| 1777844880 | 14.44° C | 55% | 1019.4 hPa | 0 mm | - | - | - |
* Rain latest hour (hover to see other rain measurements)
** Current wind speed in m/s (hover to see current wind gust speed)